User: anonymous   Login
Location: *
(48.4333°N, 5.0333°W)
Time: 17:57:45
(UTC+00:00)
Language:

Thor Agena Rocket - Orbit

View from above orbital plane
View from above orbital plane
View from above satellite
View from above satellite

Ground track
Ground track

The orbit data is extracted from the following two-line orbital elements,

1   733U 64002A   20185.53742190 -.00000015  00000-0  12113-4 0  9991
2   733  99.0096  77.7101 0033612 183.2200 176.8771 14.32398027941541
Epoch (UTC): 03 July 2020 12:53:53
Eccentricity: 0.0033612
inclination: 99.0096°
perigee height: 759 km
apogee height: 808 km
right ascension of ascending node: 77.7101°
argument of perigee: 183.2200°
revolutions per day: 14.32398027
mean anomaly at epoch: 176.8771°
orbit number at epoch: 94154

The dashed part of the orbit path shows where the satellite is in the earth's shadow,  

DLR